TimeEDT,TemperatureF,Dew PointF,Humidity,Sea Level PressureIn,VisibilityMPH,Wind Direction,Wind SpeedMPH,Gust SpeedMPH,PrecipitationIn,Events,Conditions,WindDirDegrees,DateUTC
12:56 AM,19.0,12.0,74,30.35,10.0,WNW,5.8,-,N/A,,Clear,300,2013-04-04 04:56:00
1:56 AM,18.0,12.0,78,30.35,10.0,West,6.9,-,N/A,,Clear,280,2013-04-04 05:56:00
2:56 AM,19.0,12.9,77,30.36,10.0,West,3.5,-,N/A,,Clear,280,2013-04-04 06:56:00
3:56 AM,19.9,12.9,74,30.37,10.0,West,8.1,-,N/A,,Clear,260,2013-04-04 07:56:00
4:56 AM,19.0,12.9,77,30.38,10.0,WSW,4.6,-,N/A,,Clear,240,2013-04-04 08:56:00
5:56 AM,18.0,12.0,78,30.37,10.0,WSW,3.5,-,N/A,,Clear,250,2013-04-04 09:56:00
6:56 AM,18.0,12.0,78,30.37,10.0,WSW,3.5,-,N/A,,Clear,250,2013-04-04 10:56:00
7:56 AM,21.9,14.0,72,30.36,10.0,WSW,4.6,-,N/A,,Clear,240,2013-04-04 11:56:00
8:56 AM,25.0,15.1,66,30.35,10.0,Variable,3.5,-,N/A,,Clear,0,2013-04-04 12:56:00
9:56 AM,30.9,14.0,50,30.32,10.0,SW,5.8,-,N/A,,Clear,220,2013-04-04 13:56:00
10:56 AM,35.1,12.9,40,30.29,10.0,SSW,6.9,-,N/A,,Clear,200,2013-04-04 14:56:00
11:56 AM,39.0,12.0,33,30.26,10.0,WSW,6.9,-,N/A,,Clear,250,2013-04-04 15:56:00
12:56 PM,44.1,12.0,27,30.22,10.0,SW,6.9,-,N/A,,Clear,220,2013-04-04 16:56:00
1:56 PM,46.0,10.9,24,30.17,10.0,South,8.1,18.4,N/A,,Clear,170,2013-04-04 17:56:00
2:56 PM,46.9,10.0,22,30.13,10.0,SSW,10.4,18.4,N/A,,Clear,200,2013-04-04 18:56:00
3:56 PM,48.0,10.9,22,30.12,10.0,South,12.7,20.7,N/A,,Clear,190,2013-04-04 19:56:00
4:56 PM,51.1,8.1,18,30.07,10.0,SW,10.4,-,N/A,,Clear,220,2013-04-04 20:56:00
5:56 PM,48.9,5.0,17,30.06,10.0,SSW,10.4,18.4,N/A,,Clear,210,2013-04-04 21:56:00
6:56 PM,48.0,-0.9,13,30.04,10.0,SSW,9.2,18.4,N/A,,Clear,210,2013-04-04 22:56:00
7:56 PM,44.1,1.9,17,30.04,10.0,South,6.9,-,N/A,,Clear,190,2013-04-04 23:56:00
8:56 PM,42.1,3.9,21,30.03,10.0,South,9.2,-,N/A,,Clear,190,2013-04-05 00:56:00
9:56 PM,41.0,3.0,21,30.01,10.0,South,9.2,17.3,N/A,,Clear,190,2013-04-05 01:56:00
10:56 PM,39.0,3.9,23,29.99,10.0,SSW,5.8,-,N/A,,Clear,210,2013-04-05 02:56:00
11:56 PM,37.0,6.1,28,29.97,10.0,SW,6.9,-,N/A,,Clear,220,2013-04-05 03:56:00